Year,Month,Day,Hour,Minute,Value (Times are PST for temperature in C)
2015,07,16,00,00,18.80
2015,07,16,00,01,18.80
2015,07,16,00,02,18.80
2015,07,16,00,03,18.80
2015,07,16,00,04,18.80
2015,07,16,00,05,18.80
2015,07,16,00,06,18.80
2015,07,16,00,07,18.80
2015,07,16,00,08,18.70
2015,07,16,00,09,18.70
2015,07,16,00,10,18.70
2015,07,16,00,11,18.70
2015,07,16,00,12,18.70
2015,07,16,00,13,18.70
2015,07,16,00,14,18.60
2015,07,16,00,15,18.60
2015,07,16,00,16,18.60
2015,07,16,00,17,18.60
2015,07,16,00,18,18.60
2015,07,16,00,19,18.60
2015,07,16,00,20,18.50
2015,07,16,00,21,18.50
2015,07,16,00,22,18.50
2015,07,16,00,23,18.50
2015,07,16,00,24,18.50
2015,07,16,00,25,18.50
2015,07,16,00,26,18.50
2015,07,16,00,27,18.50
2015,07,16,00,28,18.50
2015,07,16,00,29,18.50
2015,07,16,00,30,18.50
2015,07,16,00,31,18.40
2015,07,16,00,32,18.40
2015,07,16,00,33,18.40
2015,07,16,00,34,18.40
2015,07,16,00,35,18.40
2015,07,16,00,36,18.40
2015,07,16,00,37,18.40
2015,07,16,00,38,18.40
2015,07,16,00,39,18.40
2015,07,16,00,40,18.40
2015,07,16,00,41,18.40
2015,07,16,00,42,18.30
2015,07,16,00,43,18.30
2015,07,16,00,44,18.30
2015,07,16,00,45,18.30
2015,07,16,00,46,18.30
2015,07,16,00,47,18.30
2015,07,16,00,48,18.30
2015,07,16,00,49,18.20
2015,07,16,00,50,18.20
2015,07,16,00,51,18.20
2015,07,16,00,52,18.20
2015,07,16,00,53,18.20
2015,07,16,00,54,18.20
2015,07,16,00,55,18.20
2015,07,16,00,56,18.20
2015,07,16,00,57,18.20
2015,07,16,00,58,18.10
2015,07,16,00,59,18.10
2015,07,16,01,00,18.10
2015,07,16,01,01,18.10
2015,07,16,01,02,18.10
2015,07,16,01,03,18.10
2015,07,16,01,04,18.10
2015,07,16,01,05,18.10
2015,07,16,01,06,18.00
2015,07,16,01,07,18.00
2015,07,16,01,08,18.00
2015,07,16,01,09,18.00
2015,07,16,01,10,18.00
2015,07,16,01,11,17.90
2015,07,16,01,12,17.90
2015,07,16,01,13,17.90
2015,07,16,01,14,17.90
2015,07,16,01,15,17.90
2015,07,16,01,16,17.90
2015,07,16,01,17,17.90
2015,07,16,01,18,17.80
2015,07,16,01,19,17.80
2015,07,16,01,20,17.80
2015,07,16,01,21,17.80
2015,07,16,01,22,17.80
2015,07,16,01,23,17.80
2015,07,16,01,24,17.80
2015,07,16,01,25,17.80
2015,07,16,01,26,17.80
2015,07,16,01,27,17.70
2015,07,16,01,28,17.70
2015,07,16,01,29,17.70
2015,07,16,01,30,17.70
2015,07,16,01,31,17.70
2015,07,16,01,32,17.70
2015,07,16,01,33,17.70
2015,07,16,01,34,17.70
2015,07,16,01,35,17.70
2015,07,16,01,36,17.70
2015,07,16,01,37,17.70
2015,07,16,01,38,17.70
2015,07,16,01,39,17.60
2015,07,16,01,40,17.60
2015,07,16,01,41,17.60
2015,07,16,01,42,17.60
2015,07,16,01,43,17.60
2015,07,16,01,44,17.60
2015,07,16,01,45,17.60
2015,07,16,01,46,17.60
2015,07,16,01,47,17.60
2015,07,16,01,48,17.60
2015,07,16,01,49,17.60
2015,07,16,01,50,17.60
2015,07,16,01,51,17.60
2015,07,16,01,52,17.60
2015,07,16,01,53,17.60
2015,07,16,01,54,17.60
2015,07,16,01,55,17.60
2015,07,16,01,56,17.50
2015,07,16,01,57,17.50
2015,07,16,01,58,17.50
2015,07,16,01,59,17.50
2015,07,16,02,00,17.50
2015,07,16,02,01,17.50
2015,07,16,02,02,17.50
2015,07,16,02,03,17.50
2015,07,16,02,04,17.50
2015,07,16,02,05,17.50
2015,07,16,02,06,17.50
2015,07,16,02,07,17.50
2015,07,16,02,08,17.50
2015,07,16,02,09,17.50
2015,07,16,02,10,17.50
2015,07,16,02,11,17.50
2015,07,16,02,12,17.40
2015,07,16,02,13,17.40
2015,07,16,02,14,17.40
2015,07,16,02,15,17.40
2015,07,16,02,16,17.40
2015,07,16,02,17,17.40
2015,07,16,02,18,17.40
2015,07,16,02,19,17.30
2015,07,16,02,20,17.30
2015,07,16,02,21,17.30
2015,07,16,02,22,17.30
2015,07,16,02,23,17.30
2015,07,16,02,24,17.20
2015,07,16,02,25,17.20
2015,07,16,02,26,17.20
2015,07,16,02,27,17.20
2015,07,16,02,28,17.20
2015,07,16,02,29,17.20
2015,07,16,02,30,17.20
2015,07,16,02,31,17.10
2015,07,16,02,32,17.10
2015,07,16,02,33,17.10
2015,07,16,02,34,17.10
2015,07,16,02,35,17.10
2015,07,16,02,36,17.10
2015,07,16,02,37,17.10
2015,07,16,02,38,17.10
2015,07,16,02,39,17.00
2015,07,16,02,40,17.10
2015,07,16,02,41,17.10
2015,07,16,02,42,17.10
2015,07,16,02,43,17.10
2015,07,16,02,44,17.10
2015,07,16,02,45,17.10
2015,07,16,02,46,17.00
2015,07,16,02,47,17.00
2015,07,16,02,48,17.00
2015,07,16,02,49,17.00
2015,07,16,02,50,16.90
2015,07,16,02,51,16.90
2015,07,16,02,52,16.90
2015,07,16,02,53,16.90
2015,07,16,02,54,16.90
2015,07,16,02,55,16.90
2015,07,16,02,56,16.90
2015,07,16,02,57,16.90
2015,07,16,02,58,16.90
2015,07,16,02,59,16.90
2015,07,16,03,00,16.80
2015,07,16,03,01,16.80
2015,07,16,03,02,16.80
2015,07,16,03,03,16.80
2015,07,16,03,04,16.80
2015,07,16,03,05,16.80
2015,07,16,03,06,16.80
2015,07,16,03,07,16.80
2015,07,16,03,08,16.70
2015,07,16,03,09,16.70
2015,07,16,03,10,16.70
2015,07,16,03,11,16.70
2015,07,16,03,12,16.70
2015,07,16,03,13,16.70
2015,07,16,03,14,16.70
2015,07,16,03,15,16.70
2015,07,16,03,16,16.70
2015,07,16,03,17,16.70
2015,07,16,03,18,16.70
2015,07,16,03,19,16.70
2015,07,16,03,20,16.70
2015,07,16,03,21,16.60
2015,07,16,03,22,16.60
2015,07,16,03,23,16.60
2015,07,16,03,24,16.60
2015,07,16,03,25,16.60
2015,07,16,03,26,16.60
2015,07,16,03,27,16.60
2015,07,16,03,28,16.50
2015,07,16,03,29,16.50
2015,07,16,03,30,16.50
2015,07,16,03,31,16.50
2015,07,16,03,32,16.40
2015,07,16,03,33,16.40
2015,07,16,03,34,16.40
2015,07,16,03,35,16.40
2015,07,16,03,36,16.40
2015,07,16,03,37,16.40
2015,07,16,03,38,16.40
2015,07,16,03,39,16.40
2015,07,16,03,40,16.40
2015,07,16,03,41,16.40
2015,07,16,03,42,16.40
2015,07,16,03,43,16.40
2015,07,16,03,44,16.40
2015,07,16,03,45,16.50
2015,07,16,03,46,16.50
2015,07,16,03,47,16.50
2015,07,16,03,48,16.50
2015,07,16,03,49,16.50
2015,07,16,03,50,16.50
2015,07,16,03,51,16.50
2015,07,16,03,52,16.50
2015,07,16,03,53,16.50
2015,07,16,03,54,16.50
2015,07,16,03,55,16.50
2015,07,16,03,56,16.50
2015,07,16,03,57,16.40
2015,07,16,03,58,16.40
2015,07,16,03,59,16.40
2015,07,16,04,00,16.40
2015,07,16,04,01,16.40
2015,07,16,04,02,16.30
2015,07,16,04,03,16.30
2015,07,16,04,04,16.30
2015,07,16,04,05,16.30
2015,07,16,04,06,16.20
2015,07,16,04,07,16.20
2015,07,16,04,08,16.20
2015,07,16,04,09,16.20
2015,07,16,04,10,16.10
2015,07,16,04,11,16.10
2015,07,16,04,12,16.10
2015,07,16,04,13,16.00
2015,07,16,04,14,16.00
2015,07,16,04,15,16.00
2015,07,16,04,16,15.90
2015,07,16,04,17,15.90
2015,07,16,04,18,15.90
2015,07,16,04,19,15.90
2015,07,16,04,20,15.90
2015,07,16,04,21,15.80
2015,07,16,04,22,15.80
2015,07,16,04,23,15.80
2015,07,16,04,24,15.80
2015,07,16,04,25,15.80
2015,07,16,04,26,15.80
2015,07,16,04,27,15.70
2015,07,16,04,28,15.70
2015,07,16,04,29,15.70
2015,07,16,04,30,15.70
2015,07,16,04,31,15.70
2015,07,16,04,32,15.70
2015,07,16,04,33,15.70
2015,07,16,04,34,15.60
2015,07,16,04,35,15.60
2015,07,16,04,36,15.60
2015,07,16,04,37,15.60
2015,07,16,04,38,15.60
2015,07,16,04,39,15.60
2015,07,16,04,40,15.60
2015,07,16,04,41,15.60
2015,07,16,04,42,15.60
2015,07,16,04,43,15.60
2015,07,16,04,44,15.60
2015,07,16,04,45,15.60
2015,07,16,04,46,15.60
2015,07,16,04,47,15.60
2015,07,16,04,48,15.60
2015,07,16,04,49,15.60
2015,07,16,04,50,15.60
2015,07,16,04,51,15.60
2015,07,16,04,52,15.60
2015,07,16,04,53,15.60
2015,07,16,04,54,15.60
2015,07,16,04,55,15.60
2015,07,16,04,56,15.60
2015,07,16,04,57,15.60
2015,07,16,04,58,15.70
2015,07,16,04,59,15.70
2015,07,16,05,00,15.70
2015,07,16,05,01,15.70
2015,07,16,05,02,15.70
2015,07,16,05,03,15.70
2015,07,16,05,04,15.70
2015,07,16,05,05,15.70
2015,07,16,05,06,15.70
2015,07,16,05,07,15.70
2015,07,16,05,08,15.80
2015,07,16,05,09,15.80
2015,07,16,05,10,15.80
2015,07,16,05,11,15.80
2015,07,16,05,12,15.80
2015,07,16,05,13,15.80
2015,07,16,05,14,15.80
2015,07,16,05,15,15.80
2015,07,16,05,16,15.80
2015,07,16,05,17,15.80
2015,07,16,05,18,15.80
2015,07,16,05,19,15.70
2015,07,16,05,20,15.70
2015,07,16,05,21,15.70
2015,07,16,05,22,15.80
2015,07,16,05,23,15.80
2015,07,16,05,24,15.80
2015,07,16,05,25,15.80
2015,07,16,05,26,15.80
2015,07,16,05,27,15.80
2015,07,16,05,28,15.70
2015,07,16,05,29,15.70
2015,07,16,05,30,15.80
2015,07,16,05,31,15.80
2015,07,16,05,32,15.80
2015,07,16,05,33,15.80
2015,07,16,05,34,15.80
2015,07,16,05,35,15.80
2015,07,16,05,36,15.80
2015,07,16,05,37,15.70
2015,07,16,05,38,15.80
2015,07,16,05,39,15.80
2015,07,16,05,40,15.80
2015,07,16,05,41,15.70
2015,07,16,05,42,15.70
2015,07,16,05,43,15.70
2015,07,16,05,44,15.70
2015,07,16,05,45,15.70
2015,07,16,05,46,15.80
2015,07,16,05,47,15.80
2015,07,16,05,48,15.80
2015,07,16,05,49,15.80
2015,07,16,05,50,15.80
2015,07,16,05,51,15.80
2015,07,16,05,52,15.80
2015,07,16,05,53,15.80
2015,07,16,05,54,15.80
2015,07,16,05,55,15.80
2015,07,16,05,56,15.80
2015,07,16,05,57,15.90
2015,07,16,05,58,15.90
2015,07,16,05,59,15.90
2015,07,16,06,00,15.90
2015,07,16,06,01,15.90
2015,07,16,06,02,15.90
2015,07,16,06,03,15.90
2015,07,16,06,04,16.00
2015,07,16,06,05,16.00
2015,07,16,06,06,16.00
2015,07,16,06,07,16.00
2015,07,16,06,08,16.00
2015,07,16,06,09,16.00
2015,07,16,06,10,16.00
2015,07,16,06,11,16.00
2015,07,16,06,12,16.00
2015,07,16,06,13,16.00
2015,07,16,06,14,16.00
2015,07,16,06,15,16.00
2015,07,16,06,16,16.00
2015,07,16,06,17,15.90
2015,07,16,06,18,15.90
2015,07,16,06,19,15.90
2015,07,16,06,20,16.00
2015,07,16,06,21,16.00
2015,07,16,06,22,16.00
2015,07,16,06,23,16.00
2015,07,16,06,24,16.00
2015,07,16,06,25,16.00
2015,07,16,06,26,16.00
2015,07,16,06,27,16.10
2015,07,16,06,28,16.10
2015,07,16,06,29,16.10
2015,07,16,06,30,16.10
2015,07,16,06,31,16.10
2015,07,16,06,32,16.10
2015,07,16,06,33,16.10
2015,07,16,06,34,16.10
2015,07,16,06,35,16.10
2015,07,16,06,36,16.10
2015,07,16,06,37,16.10
2015,07,16,06,38,16.10
2015,07,16,06,39,16.10
2015,07,16,06,40,16.10
2015,07,16,06,41,16.10
2015,07,16,06,42,16.10
2015,07,16,06,43,16.10
2015,07,16,06,44,16.10
2015,07,16,06,45,16.10
2015,07,16,06,46,16.10
2015,07,16,06,47,16.10
2015,07,16,06,48,16.10
2015,07,16,06,49,16.10
2015,07,16,06,50,16.20
2015,07,16,06,51,16.20
2015,07,16,06,52,16.20
2015,07,16,06,53,16.20
2015,07,16,06,54,16.20
2015,07,16,06,55,16.20
2015,07,16,06,56,16.20
2015,07,16,06,57,16.20
2015,07,16,06,58,16.30
2015,07,16,06,59,16.30
2015,07,16,07,00,16.30
2015,07,16,07,01,16.30
2015,07,16,07,02,16.30
2015,07,16,07,03,16.30
2015,07,16,07,04,16.40
2015,07,16,07,05,16.40
2015,07,16,07,06,16.40
2015,07,16,07,07,16.40
2015,07,16,07,08,16.40
2015,07,16,07,09,16.40
2015,07,16,07,10,16.40
2015,07,16,07,11,16.40
2015,07,16,07,12,16.40
2015,07,16,07,13,16.50
2015,07,16,07,14,16.50
2015,07,16,07,15,16.50
2015,07,16,07,16,16.50
2015,07,16,07,17,16.60
2015,07,16,07,18,16.60
2015,07,16,07,19,16.60
2015,07,16,07,20,16.60
2015,07,16,07,21,16.60
2015,07,16,07,22,16.70
2015,07,16,07,23,16.70
2015,07,16,07,24,16.70
2015,07,16,07,25,16.70
2015,07,16,07,26,16.70
2015,07,16,07,27,16.70
2015,07,16,07,28,16.70
2015,07,16,07,29,16.80
2015,07,16,07,30,16.80
2015,07,16,07,31,16.80
2015,07,16,07,32,16.80
2015,07,16,07,33,16.80
2015,07,16,07,34,16.80
2015,07,16,07,35,16.90
2015,07,16,07,36,16.90
2015,07,16,07,37,16.80
2015,07,16,07,38,16.80
2015,07,16,07,39,16.80
2015,07,16,07,40,16.80
2015,07,16,07,41,16.80
2015,07,16,07,42,16.90
2015,07,16,07,43,16.90
2015,07,16,07,44,16.90
2015,07,16,07,45,16.90
2015,07,16,07,46,16.90
2015,07,16,07,47,17.00
2015,07,16,07,48,17.00
2015,07,16,07,49,16.90
2015,07,16,07,50,16.90
2015,07,16,07,51,17.00
2015,07,16,07,52,17.00
2015,07,16,07,53,17.00
2015,07,16,07,54,17.00
2015,07,16,07,55,17.00
2015,07,16,07,56,17.10
2015,07,16,07,57,17.10
2015,07,16,07,58,17.10
2015,07,16,07,59,17.10
2015,07,16,08,00,17.10
2015,07,16,08,01,17.10
2015,07,16,08,02,17.10
2015,07,16,08,03,17.20
2015,07,16,08,04,17.20
2015,07,16,08,05,17.20
2015,07,16,08,06,17.20
2015,07,16,08,07,17.20
2015,07,16,08,08,17.20
2015,07,16,08,09,17.30
2015,07,16,08,10,17.30
2015,07,16,08,11,17.30
2015,07,16,08,12,17.30
2015,07,16,08,13,17.30
2015,07,16,08,14,17.30
2015,07,16,08,15,17.40
2015,07,16,08,16,17.40
2015,07,16,08,17,17.40
2015,07,16,08,18,17.50
2015,07,16,08,19,17.50
2015,07,16,08,20,17.60
2015,07,16,08,21,17.60
2015,07,16,08,22,17.60
2015,07,16,08,23,17.70
2015,07,16,08,24,17.70
2015,07,16,08,25,17.80
2015,07,16,08,26,17.80
2015,07,16,08,27,17.90
2015,07,16,08,28,17.90
2015,07,16,08,29,18.00
2015,07,16,08,30,18.10
2015,07,16,08,31,18.10
2015,07,16,08,32,18.20
2015,07,16,08,33,18.20
2015,07,16,08,34,18.20
2015,07,16,08,35,18.20
2015,07,16,08,36,18.20
2015,07,16,08,37,18.30
2015,07,16,08,38,18.30
2015,07,16,08,39,18.30
2015,07,16,08,40,18.30
2015,07,16,08,41,18.30
2015,07,16,08,42,18.20
2015,07,16,08,43,18.20
2015,07,16,08,44,18.20
2015,07,16,08,45,18.20
2015,07,16,08,46,18.20
2015,07,16,08,47,18.30
2015,07,16,08,48,18.30
2015,07,16,08,49,18.40
2015,07,16,08,50,18.40
2015,07,16,08,51,18.50
2015,07,16,08,52,18.50
2015,07,16,08,53,18.60
2015,07,16,08,54,18.60
2015,07,16,08,55,18.70
2015,07,16,08,56,18.70
2015,07,16,08,57,18.70
2015,07,16,08,58,18.70
2015,07,16,08,59,18.80
2015,07,16,09,00,18.80
2015,07,16,09,01,18.80
2015,07,16,09,02,18.70
2015,07,16,09,03,18.70
2015,07,16,09,04,18.70
2015,07,16,09,05,18.70
2015,07,16,09,06,18.80
2015,07,16,09,07,18.80
2015,07,16,09,08,18.80
2015,07,16,09,09,18.80
2015,07,16,09,10,18.80
2015,07,16,09,11,18.80
2015,07,16,09,12,18.80
2015,07,16,09,13,18.80
2015,07,16,09,14,18.80
2015,07,16,09,15,18.80
2015,07,16,09,16,18.80
2015,07,16,09,17,18.90
2015,07,16,09,18,18.90
2015,07,16,09,19,19.00
2015,07,16,09,20,19.00
2015,07,16,09,21,19.10
2015,07,16,09,22,19.10
2015,07,16,09,23,19.10
2015,07,16,09,24,19.10
2015,07,16,09,25,19.20
2015,07,16,09,26,19.20
2015,07,16,09,27,19.30
2015,07,16,09,28,19.30
2015,07,16,09,29,19.30
2015,07,16,09,30,19.30
2015,07,16,09,31,19.30
2015,07,16,09,32,19.30
2015,07,16,09,33,19.30
2015,07,16,09,34,19.40
2015,07,16,09,35,19.40
2015,07,16,09,36,19.40
2015,07,16,09,37,19.50
2015,07,16,09,38,19.50
2015,07,16,09,39,19.50
2015,07,16,09,40,19.40
2015,07,16,09,41,19.50
2015,07,16,09,42,19.50
2015,07,16,09,43,19.60
2015,07,16,09,44,19.60
2015,07,16,09,45,19.70
2015,07,16,09,46,19.70
2015,07,16,09,47,19.80
2015,07,16,09,48,19.80
2015,07,16,09,49,19.80
2015,07,16,09,50,19.90
2015,07,16,09,51,20.00
2015,07,16,09,52,20.00
2015,07,16,09,53,20.10
2015,07,16,09,54,20.10
2015,07,16,09,55,20.20
2015,07,16,09,56,20.20
2015,07,16,09,57,20.20
2015,07,16,09,58,20.20
2015,07,16,09,59,20.20
2015,07,16,10,00,20.30
2015,07,16,10,01,20.30
2015,07,16,10,02,20.30
2015,07,16,10,03,20.30
2015,07,16,10,04,20.30
2015,07,16,10,05,20.30
2015,07,16,10,06,20.30
2015,07,16,10,07,20.20
2015,07,16,10,08,20.20
2015,07,16,10,09,20.20
2015,07,16,10,10,20.20
2015,07,16,10,11,20.20
2015,07,16,10,12,20.20
2015,07,16,10,13,20.20
2015,07,16,10,14,20.20
2015,07,16,10,15,20.20
2015,07,16,10,16,20.20
2015,07,16,10,17,20.20
2015,07,16,10,18,20.20
2015,07,16,10,19,20.30
2015,07,16,10,20,20.30
2015,07,16,10,21,20.30
2015,07,16,10,22,20.40
2015,07,16,10,23,20.50
2015,07,16,10,24,20.50
2015,07,16,10,25,20.50
2015,07,16,10,26,20.50
2015,07,16,10,27,20.40
2015,07,16,10,28,20.30
2015,07,16,10,29,20.30
2015,07,16,10,30,20.30
2015,07,16,10,31,20.30
2015,07,16,10,32,20.30
2015,07,16,10,33,20.30
2015,07,16,10,34,20.30
2015,07,16,10,35,20.30
2015,07,16,10,36,20.40
2015,07,16,10,37,20.40
2015,07,16,10,38,20.40
2015,07,16,10,39,20.50
2015,07,16,10,40,20.60
2015,07,16,10,41,20.60
2015,07,16,10,42,20.60
2015,07,16,10,43,20.60
2015,07,16,10,44,20.70
2015,07,16,10,45,20.60
2015,07,16,10,46,20.70
2015,07,16,10,47,20.60
2015,07,16,10,48,20.60
2015,07,16,10,49,20.60
2015,07,16,10,50,20.60
2015,07,16,10,51,20.60
2015,07,16,10,52,20.60
2015,07,16,10,53,20.70
2015,07,16,10,54,20.70
2015,07,16,10,55,20.80
2015,07,16,10,56,20.80
2015,07,16,10,57,20.80
2015,07,16,10,58,20.90
2015,07,16,10,59,20.90
2015,07,16,11,00,20.90
2015,07,16,11,01,20.90
2015,07,16,11,02,20.80
2015,07,16,11,03,20.80
2015,07,16,11,04,20.80
2015,07,16,11,05,20.70
2015,07,16,11,06,20.80
2015,07,16,11,07,20.80
2015,07,16,11,08,20.80
2015,07,16,11,09,20.80
2015,07,16,11,10,20.80
2015,07,16,11,11,20.80
2015,07,16,11,12,20.80
2015,07,16,11,13,20.80
2015,07,16,11,14,20.90
2015,07,16,11,15,20.90
2015,07,16,11,16,20.90
2015,07,16,11,17,21.00
2015,07,16,11,18,21.00
2015,07,16,11,19,21.00
2015,07,16,11,20,21.00
2015,07,16,11,21,21.00
2015,07,16,11,22,21.00
2015,07,16,11,23,21.00
2015,07,16,11,24,20.90
2015,07,16,11,25,20.90
2015,07,16,11,26,20.90
2015,07,16,11,27,20.90
2015,07,16,11,28,21.00
2015,07,16,11,29,21.10
2015,07,16,11,30,21.20
2015,07,16,11,31,21.30
2015,07,16,11,32,21.30
2015,07,16,11,33,21.30
2015,07,16,11,34,21.30
2015,07,16,11,35,21.30
2015,07,16,11,36,21.30
2015,07,16,11,37,21.40
2015,07,16,11,38,21.40
2015,07,16,11,39,21.40
2015,07,16,11,40,21.40
2015,07,16,11,41,21.30
2015,07,16,11,42,21.30
2015,07,16,11,43,21.30
2015,07,16,11,44,21.30
2015,07,16,11,45,21.30
2015,07,16,11,46,21.40
2015,07,16,11,47,21.40
2015,07,16,11,48,21.40
2015,07,16,11,49,21.50
2015,07,16,11,50,21.50
2015,07,16,11,51,21.50
2015,07,16,11,52,21.60
2015,07,16,11,53,21.70
2015,07,16,11,54,21.70
2015,07,16,11,55,21.80
2015,07,16,11,56,21.80
2015,07,16,11,57,21.90
2015,07,16,11,58,21.90
2015,07,16,11,59,22.00
2015,07,16,12,00,22.00
2015,07,16,12,01,22.10
2015,07,16,12,02,22.10
2015,07,16,12,03,22.10
2015,07,16,12,04,22.10
2015,07,16,12,05,22.10
2015,07,16,12,06,22.10
2015,07,16,12,07,22.10
2015,07,16,12,08,22.20
2015,07,16,12,09,22.20
2015,07,16,12,10,22.10
2015,07,16,12,11,22.10
2015,07,16,12,12,22.00
2015,07,16,12,13,21.90
2015,07,16,12,14,22.00
2015,07,16,12,15,22.00
2015,07,16,12,16,22.00
2015,07,16,12,17,22.10
2015,07,16,12,18,22.10
2015,07,16,12,19,22.00
2015,07,16,12,20,22.00
2015,07,16,12,21,22.00
2015,07,16,12,22,22.10
2015,07,16,12,23,22.10
2015,07,16,12,24,22.20
2015,07,16,12,25,22.20
2015,07,16,12,26,22.20
2015,07,16,12,27,22.20
2015,07,16,12,28,22.30
2015,07,16,12,29,22.30
2015,07,16,12,30,22.40
2015,07,16,12,31,22.50
2015,07,16,12,32,22.50
2015,07,16,12,33,22.50
2015,07,16,12,34,22.40
2015,07,16,12,35,22.40
2015,07,16,12,36,22.30
2015,07,16,12,37,22.40
2015,07,16,12,38,22.40
2015,07,16,12,39,22.40
2015,07,16,12,40,22.50
2015,07,16,12,41,22.60
2015,07,16,12,42,22.70
2015,07,16,12,43,22.80
2015,07,16,12,44,22.80
2015,07,16,12,45,22.80
2015,07,16,12,46,22.80
2015,07,16,12,47,22.70
2015,07,16,12,48,22.60
2015,07,16,12,49,22.60
2015,07,16,12,50,22.60
2015,07,16,12,51,22.60
2015,07,16,12,52,22.60
2015,07,16,12,53,22.60
2015,07,16,12,54,22.60
2015,07,16,12,55,22.60
2015,07,16,12,56,22.60
2015,07,16,12,57,22.60
2015,07,16,12,58,22.70
2015,07,16,12,59,22.80
2015,07,16,13,00,22.90
2015,07,16,13,01,22.90
2015,07,16,13,02,22.90
2015,07,16,13,03,22.80
2015,07,16,13,04,22.90
2015,07,16,13,05,22.90
2015,07,16,13,06,23.00
2015,07,16,13,07,23.00
2015,07,16,13,08,23.10
2015,07,16,13,09,23.10
2015,07,16,13,10,23.10
2015,07,16,13,11,23.20
2015,07,16,13,12,23.20
2015,07,16,13,13,23.30
2015,07,16,13,14,23.40
2015,07,16,13,15,23.50
2015,07,16,13,16,23.50
2015,07,16,13,17,23.60
2015,07,16,13,18,23.60
2015,07,16,13,19,23.50
2015,07,16,13,20,23.50
2015,07,16,13,21,23.40
2015,07,16,13,22,23.20
2015,07,16,13,23,23.10
2015,07,16,13,24,22.90
2015,07,16,13,25,23.00
2015,07,16,13,26,23.10
2015,07,16,13,27,23.10
2015,07,16,13,28,23.10
2015,07,16,13,29,23.20
2015,07,16,13,30,23.40
2015,07,16,13,31,23.50
2015,07,16,13,32,23.60
2015,07,16,13,33,23.60
2015,07,16,13,34,23.50
2015,07,16,13,35,23.50
2015,07,16,13,36,23.40
2015,07,16,13,37,23.40
2015,07,16,13,38,23.40
2015,07,16,13,39,23.50
2015,07,16,13,40,23.60
2015,07,16,13,41,23.60
2015,07,16,13,42,23.70
2015,07,16,13,43,23.70
2015,07,16,13,44,23.60
2015,07,16,13,45,23.60
2015,07,16,13,46,23.60
2015,07,16,13,47,23.60
2015,07,16,13,48,23.60
2015,07,16,13,49,23.70
2015,07,16,13,50,23.80
2015,07,16,13,51,23.80
2015,07,16,13,52,23.80
2015,07,16,13,53,23.70
2015,07,16,13,54,23.70
2015,07,16,13,55,23.80
2015,07,16,13,56,23.90
2015,07,16,13,57,24.00
2015,07,16,13,58,24.10
2015,07,16,13,59,24.20
2015,07,16,14,00,24.30
2015,07,16,14,01,24.30
2015,07,16,14,02,24.30
2015,07,16,14,03,24.30
2015,07,16,14,04,24.30
2015,07,16,14,05,24.30
2015,07,16,14,06,24.30
2015,07,16,14,07,24.30
2015,07,16,14,08,24.40
2015,07,16,14,09,24.40
2015,07,16,14,10,24.40
2015,07,16,14,11,24.40
2015,07,16,14,12,24.40
2015,07,16,14,13,24.30
2015,07,16,14,14,24.30
2015,07,16,14,15,24.30
2015,07,16,14,16,24.30
2015,07,16,14,17,24.40
2015,07,16,14,18,24.50
2015,07,16,14,19,24.50
2015,07,16,14,20,24.40
2015,07,16,14,21,24.30
2015,07,16,14,22,24.30
2015,07,16,14,23,24.30
2015,07,16,14,24,24.20
2015,07,16,14,25,24.30
2015,07,16,14,26,24.30
2015,07,16,14,27,24.30
2015,07,16,14,28,24.20
2015,07,16,14,29,24.30
2015,07,16,14,30,24.40
2015,07,16,14,31,24.40
2015,07,16,14,32,24.50
2015,07,16,14,33,24.50
2015,07,16,14,34,24.50
2015,07,16,14,35,24.50
2015,07,16,14,36,24.50
2015,07,16,14,37,24.50
2015,07,16,14,38,24.50
2015,07,16,14,39,24.60
2015,07,16,14,40,24.70
2015,07,16,14,41,24.70
2015,07,16,14,42,24.80
2015,07,16,14,43,24.70
2015,07,16,14,44,24.70
2015,07,16,14,45,24.60
2015,07,16,14,46,24.50
2015,07,16,14,47,24.50
2015,07,16,14,48,24.50
2015,07,16,14,49,24.60
2015,07,16,14,50,24.70
2015,07,16,14,51,24.80
2015,07,16,14,52,24.80
2015,07,16,14,53,24.80
2015,07,16,14,54,24.80
2015,07,16,14,55,24.80
2015,07,16,14,56,24.80
2015,07,16,14,57,24.80
2015,07,16,14,58,24.70
2015,07,16,14,59,24.70
2015,07,16,15,00,24.70
2015,07,16,15,01,24.80
2015,07,16,15,02,24.80
2015,07,16,15,03,24.80
2015,07,16,15,04,24.80
2015,07,16,15,05,24.80
2015,07,16,15,06,24.80
2015,07,16,15,07,24.80
2015,07,16,15,08,24.80
2015,07,16,15,09,24.90
2015,07,16,15,10,24.90
2015,07,16,15,11,24.90
2015,07,16,15,12,24.90
2015,07,16,15,13,24.90
2015,07,16,15,14,24.80
2015,07,16,15,15,24.80
2015,07,16,15,16,24.70
2015,07,16,15,17,24.60
2015,07,16,15,18,24.50
2015,07,16,15,19,24.40
2015,07,16,15,20,24.50
2015,07,16,15,21,24.60
2015,07,16,15,22,24.70
2015,07,16,15,23,24.70
2015,07,16,15,24,24.80
2015,07,16,15,25,24.80
2015,07,16,15,26,24.80
2015,07,16,15,27,24.90
2015,07,16,15,28,24.90
2015,07,16,15,29,24.90
2015,07,16,15,30,24.90
2015,07,16,15,31,24.90
2015,07,16,15,32,24.90
2015,07,16,15,33,24.90
2015,07,16,15,34,25.00
2015,07,16,15,35,25.00
2015,07,16,15,36,25.00
2015,07,16,15,37,25.00
2015,07,16,15,38,25.10
2015,07,16,15,39,25.00
2015,07,16,15,40,25.00
2015,07,16,15,41,25.00
2015,07,16,15,42,25.00
2015,07,16,15,43,25.00
2015,07,16,15,44,25.10
2015,07,16,15,45,25.10
2015,07,16,15,46,25.10
2015,07,16,15,47,25.20
2015,07,16,15,48,25.10
2015,07,16,15,49,25.10
2015,07,16,15,50,25.00
2015,07,16,15,51,24.90
2015,07,16,15,52,24.90
2015,07,16,15,53,24.90
2015,07,16,15,54,24.90
2015,07,16,15,55,24.90
2015,07,16,15,56,25.00
2015,07,16,15,57,24.90
2015,07,16,15,58,24.80
2015,07,16,15,59,24.80
2015,07,16,16,00,24.70
2015,07,16,16,01,24.80
2015,07,16,16,02,24.80
2015,07,16,16,03,24.80
2015,07,16,16,04,24.80
2015,07,16,16,05,24.70
2015,07,16,16,06,24.70
2015,07,16,16,07,24.60
2015,07,16,16,08,24.60
2015,07,16,16,09,24.60
2015,07,16,16,10,24.70
2015,07,16,16,11,24.70
2015,07,16,16,12,24.80
2015,07,16,16,13,24.90
2015,07,16,16,14,25.00
2015,07,16,16,15,25.10
2015,07,16,16,16,25.10
2015,07,16,16,17,25.00
2015,07,16,16,18,25.00
2015,07,16,16,19,25.00
2015,07,16,16,20,25.00
2015,07,16,16,21,25.00
2015,07,16,16,22,24.90
2015,07,16,16,23,24.90
2015,07,16,16,24,24.80
2015,07,16,16,25,24.70
2015,07,16,16,26,24.80
2015,07,16,16,27,24.80
2015,07,16,16,28,24.80
2015,07,16,16,29,24.70
2015,07,16,16,30,24.70
2015,07,16,16,31,24.70
2015,07,16,16,32,24.70
2015,07,16,16,33,24.70
2015,07,16,16,34,24.70
2015,07,16,16,35,24.60
2015,07,16,16,36,24.60
2015,07,16,16,37,24.60
2015,07,16,16,38,24.60
2015,07,16,16,39,24.60
2015,07,16,16,40,24.70
2015,07,16,16,41,24.80
2015,07,16,16,42,24.90
2015,07,16,16,43,24.90
2015,07,16,16,44,24.90
2015,07,16,16,45,24.80
2015,07,16,16,46,24.80
2015,07,16,16,47,24.80
2015,07,16,16,48,24.80
2015,07,16,16,49,24.80
2015,07,16,16,50,24.80
2015,07,16,16,51,24.90
2015,07,16,16,52,24.90
2015,07,16,16,53,24.90
2015,07,16,16,54,24.90
2015,07,16,16,55,24.90
2015,07,16,16,56,24.90
2015,07,16,16,57,24.90
2015,07,16,16,58,24.90
2015,07,16,16,59,25.00
2015,07,16,17,00,25.00
2015,07,16,17,01,25.10
2015,07,16,17,02,25.20
2015,07,16,17,03,25.20
2015,07,16,17,04,25.30
2015,07,16,17,05,25.30
2015,07,16,17,06,25.20
2015,07,16,17,07,25.20
2015,07,16,17,08,25.20
2015,07,16,17,09,25.10
2015,07,16,17,10,25.00
2015,07,16,17,11,24.90
2015,07,16,17,12,24.80
2015,07,16,17,13,24.70
2015,07,16,17,14,24.60
2015,07,16,17,15,24.60
2015,07,16,17,16,24.50
2015,07,16,17,17,24.50
2015,07,16,17,18,24.60
2015,07,16,17,19,24.60